Regional Weather Roundup
Issued by NWS

Home | Current Version | Previous Version | Text Only | Print | Product List | Glossary On
Versions: 1 2 3 4 5 6 7 8 9 10 11 12 13 14 15 16 17 18 19 20 21 22 23 24 25 26 27 28 29 30 31 32 33 34 35 36 37 38 39 40 41 42 43 44 45 46 47 48 49
000
ASUS45 KSLC 281310
RWRUT

UTAH REGIONAL WEATHER ROUNDUP
NATIONAL WEATHER SERVICE SALT LAKE CITY UT
600 AM MST SUN DEC 28 2014

UTZ001>011-023>025-281400-

NORTHERN UTAH

CITY           SKY/WX    TMP DP  RH WIND       PRES   REMARKS
BRIGHAM CITY   CLOUDY    29  16  57 S18G25    30.09F WCI  17
HILL AFB       FLURRIES  25  16  68 E7        30.08S WCI  17
LOGAN          CLOUDY    28  16  60 S10       30.05F WCI  19
OGDEN          FLURRIES  26  18  71 SE5       30.10F WCI  20
PROVO AIRPORT  CLOUDY    23  14  68 SE6       30.12F WCI  16
SALT LAKE CITY CLOUDY    27  15  61 S10       30.10S WCI  17
VERNAL         CLOUDY    13   8  81 NE5       30.12F WCI   5
WENDOVER       PTCLDY    21  14  73 CALM      30.08F
HEBER CITY     CLOUDY    16  12  86 SE3       30.07F
WEST JORDAN    CLOUDY    25  19  80 S15       30.10F WCI  12

$$

UTZ012>022-026-027-281400-

SOUTHERN/CENTRAL UTAH

CITY           SKY/WX    TMP DP  RH WIND       PRES   REMARKS
BLANDING       CLOUDY    18  11  74 E3        30.25S
BRYCE CANYON   CLEAR      2  -4  76 W12       30.10F WCI -15
CEDAR CITY     CLOUDY    16   9  74 NE5       30.14F WCI   9
DELTA          CLOUDY    22  17  81 CALM      30.13F
MILFORD        CLOUDY    21  12  68 SW21      30.13F WCI   5
MOAB/CYNLANDS  PTCLDY    16  12  84 CALM      30.17F
PRICE          PTCLDY    14   4  64 CALM      30.11F
ST GEORGE      PTSUNNY   21   5  49 S3        30.29F
KANAB          PTCLDY    14  10  85 CALM      30.25F

$$

REGIONAL REPORTS     COLORADO/ARIZONA

CITY           SKY/WX    TMP DP  RH WIND       PRES   REMARKS
CRAIG, CO      CLOUDY    13   6  74 CALM      30.07F
GRAND JUNCTION CLOUDY    19  12  74 SE7       30.18F WCI  10
RIFLE          CLOUDY    15   7  70 CALM      30.18F
MONTROSE       CLOUDY    16   8  71 SE6       30.18F WCI   7
CORTEZ         CLOUDY    11   6  81 CALM      30.19F
PAGE, AZ       CLEAR     24   8  50 SW5       30.20F WCI  18
GRAND CANYON   PTCLDY     7   3  84 CALM      30.19F
KINGMAN        CLEAR     21  12  68 S5        30.23F WCI  15
FLAGSTAFF      CLEAR     10   5  80 CALM      30.17S

$$

REGIONAL REPORTS    NEVADA/IDAHO/WYOMING

CITY           SKY/WX    TMP DP  RH WIND       PRES   REMARKS
LAS VEGAS, NV  MOCLDY    34  12  40 S9        30.24S WCI  27
ELY            CLOUDY    17   8  67 S9        30.13F WCI   6
ELKO           CLOUDY    29  17  61 S7        30.10F WCI  22
POCATELLO, ID  LGT SNOW  26  21  81 S18G26    29.97S WCI  13
BURLEY         LGT SNOW  29  26  89 SW8       29.97F FOG     WCI  21
EVANSTON, WY   CLOUDY    16  10  77 S15       29.96F WCI   1
ROCK SPRINGS   CLOUDY    15   8  73 S10       29.96F WCI   2

$$


USA.gov is the U.S. government's official web portal to all federal, state and local government web resources and services.